Index of /20260505/WXO-DD/model_rdps/10km/12/033
Name Last modified Size Description
Parent Directory -
20260505T12Z_MSC_RDPS_AbsoluteVorticity_IsbL-0250_RLatLon0.09_PT033H.grib2 2026-05-05 14:48 593K
20260505T12Z_MSC_RDPS_AbsoluteVorticity_IsbL-0500_RLatLon0.09_PT033H.grib2 2026-05-05 14:48 558K
20260505T12Z_MSC_RDPS_AbsoluteVorticity_IsbL-0700_RLatLon0.09_PT033H.grib2 2026-05-05 14:48 615K
20260505T12Z_MSC_RDPS_AbsoluteVorticity_IsbL-0850_RLatLon0.09_PT033H.grib2 2026-05-05 14:48 785K
20260505T12Z_MSC_RDPS_AirTemp_AGL-120m_RLatLon0.09_PT033H.grib2 2026-05-05 14:48 375K
20260505T12Z_MSC_RDPS_AirTemp_AGL-2m_RLatLon0.09_PT033H.grib2 2026-05-05 14:48 625K
20260505T12Z_MSC_RDPS_AirTemp_AGL-40m_RLatLon0.09_PT033H.grib2 2026-05-05 14:48 400K
20260505T12Z_MSC_RDPS_AirTemp_AGL-80m_RLatLon0.09_PT033H.grib2 2026-05-05 14:48 395K
20260505T12Z_MSC_RDPS_AirTemp_IsbL-0001_RLatLon0.09_PT033H.grib2 2026-05-05 14:48 314K
20260505T12Z_MSC_RDPS_AirTemp_IsbL-0005_RLatLon0.09_PT033H.grib2 2026-05-05 14:48 289K
20260505T12Z_MSC_RDPS_AirTemp_IsbL-0010_RLatLon0.09_PT033H.grib2 2026-05-05 14:48 392K
20260505T12Z_MSC_RDPS_AirTemp_IsbL-0020_RLatLon0.09_PT033H.grib2 2026-05-05 14:48 320K
20260505T12Z_MSC_RDPS_AirTemp_IsbL-0030_RLatLon0.09_PT033H.grib2 2026-05-05 14:48 337K
20260505T12Z_MSC_RDPS_AirTemp_IsbL-0050_RLatLon0.09_PT033H.grib2 2026-05-05 14:48 314K
20260505T12Z_MSC_RDPS_AirTemp_IsbL-0100_RLatLon0.09_PT033H.grib2 2026-05-05 14:48 420K
20260505T12Z_MSC_RDPS_AirTemp_IsbL-0150_RLatLon0.09_PT033H.grib2 2026-05-05 14:48 410K
20260505T12Z_MSC_RDPS_AirTemp_IsbL-0175_RLatLon0.09_PT033H.grib2 2026-05-05 14:48 404K
20260505T12Z_MSC_RDPS_AirTemp_IsbL-0200_RLatLon0.09_PT033H.grib2 2026-05-05 14:48 412K
20260505T12Z_MSC_RDPS_AirTemp_IsbL-0225_RLatLon0.09_PT033H.grib2 2026-05-05 14:48 414K
20260505T12Z_MSC_RDPS_AirTemp_IsbL-0250_RLatLon0.09_PT033H.grib2 2026-05-05 14:48 419K
20260505T12Z_MSC_RDPS_AirTemp_IsbL-0275_RLatLon0.09_PT033H.grib2 2026-05-05 14:48 399K
20260505T12Z_MSC_RDPS_AirTemp_IsbL-0300_RLatLon0.09_PT033H.grib2 2026-05-05 14:48 407K
20260505T12Z_MSC_RDPS_AirTemp_IsbL-0350_RLatLon0.09_PT033H.grib2 2026-05-05 14:48 424K
20260505T12Z_MSC_RDPS_AirTemp_IsbL-0400_RLatLon0.09_PT033H.grib2 2026-05-05 14:48 426K
20260505T12Z_MSC_RDPS_AirTemp_IsbL-0450_RLatLon0.09_PT033H.grib2 2026-05-05 14:48 434K
20260505T12Z_MSC_RDPS_AirTemp_IsbL-0500_RLatLon0.09_PT033H.grib2 2026-05-05 14:48 443K
20260505T12Z_MSC_RDPS_AirTemp_IsbL-0550_RLatLon0.09_PT033H.grib2 2026-05-05 14:48 459K
20260505T12Z_MSC_RDPS_AirTemp_IsbL-0600_RLatLon0.09_PT033H.grib2 2026-05-05 14:48 443K
20260505T12Z_MSC_RDPS_AirTemp_IsbL-0650_RLatLon0.09_PT033H.grib2 2026-05-05 14:48 459K
20260505T12Z_MSC_RDPS_AirTemp_IsbL-0700_RLatLon0.09_PT033H.grib2 2026-05-05 14:48 487K
20260505T12Z_MSC_RDPS_AirTemp_IsbL-0750_RLatLon0.09_PT033H.grib2 2026-05-05 14:48 412K
20260505T12Z_MSC_RDPS_AirTemp_IsbL-0800_RLatLon0.09_PT033H.grib2 2026-05-05 14:48 455K
20260505T12Z_MSC_RDPS_AirTemp_IsbL-0850_RLatLon0.09_PT033H.grib2 2026-05-05 14:48 501K
20260505T12Z_MSC_RDPS_AirTemp_IsbL-0875_RLatLon0.09_PT033H.grib2 2026-05-05 14:48 521K
20260505T12Z_MSC_RDPS_AirTemp_IsbL-0900_RLatLon0.09_PT033H.grib2 2026-05-05 14:48 531K
20260505T12Z_MSC_RDPS_AirTemp_IsbL-0925_RLatLon0.09_PT033H.grib2 2026-05-05 14:48 530K
20260505T12Z_MSC_RDPS_AirTemp_IsbL-0950_RLatLon0.09_PT033H.grib2 2026-05-05 14:48 526K
20260505T12Z_MSC_RDPS_AirTemp_IsbL-0970_RLatLon0.09_PT033H.grib2 2026-05-05 14:48 521K
20260505T12Z_MSC_RDPS_AirTemp_IsbL-0985_RLatLon0.09_PT033H.grib2 2026-05-05 14:48 511K
20260505T12Z_MSC_RDPS_AirTemp_IsbL-1000_RLatLon0.09_PT033H.grib2 2026-05-05 14:48 506K
20260505T12Z_MSC_RDPS_AirTemp_IsbL-1015_RLatLon0.09_PT033H.grib2 2026-05-05 14:48 508K
20260505T12Z_MSC_RDPS_Albedo_Sfc_RLatLon0.09_PT033H.grib2 2026-05-05 14:48 160K
20260505T12Z_MSC_RDPS_CAPE_Sfc_RLatLon0.09_PT033H.grib2 2026-05-05 14:48 1.8M
20260505T12Z_MSC_RDPS_CIN_Sfc_RLatLon0.09_PT033H.grib2 2026-05-05 14:48 1.3M
20260505T12Z_MSC_RDPS_CloudWater_EAtm_RLatLon0.09_PT033H.grib2 2026-05-05 14:48 223K
20260505T12Z_MSC_RDPS_ConvectivePrecip-Accum_Sfc_RLatLon0.09_PT033H.grib2 2026-05-05 14:48 884K
20260505T12Z_MSC_RDPS_DewPointDepression_AGL-2m_RLatLon0.09_PT033H.grib2 2026-05-05 14:48 424K
20260505T12Z_MSC_RDPS_DewPointDepression_IsbL-0001_RLatLon0.09_PT033H.grib2 2026-05-05 14:48 193
20260505T12Z_MSC_RDPS_DewPointDepression_IsbL-0005_RLatLon0.09_PT033H.grib2 2026-05-05 14:48 193
20260505T12Z_MSC_RDPS_DewPointDepression_IsbL-0010_RLatLon0.09_PT033H.grib2 2026-05-05 14:48 193
20260505T12Z_MSC_RDPS_DewPointDepression_IsbL-0020_RLatLon0.09_PT033H.grib2 2026-05-05 14:48 193
20260505T12Z_MSC_RDPS_DewPointDepression_IsbL-0030_RLatLon0.09_PT033H.grib2 2026-05-05 14:48 193
20260505T12Z_MSC_RDPS_DewPointDepression_IsbL-0050_RLatLon0.09_PT033H.grib2 2026-05-05 14:48 80K
20260505T12Z_MSC_RDPS_DewPointDepression_IsbL-0100_RLatLon0.09_PT033H.grib2 2026-05-05 14:48 111K
20260505T12Z_MSC_RDPS_DewPointDepression_IsbL-0150_RLatLon0.09_PT033H.grib2 2026-05-05 14:48 141K
20260505T12Z_MSC_RDPS_DewPointDepression_IsbL-0175_RLatLon0.09_PT033H.grib2 2026-05-05 14:48 185K
20260505T12Z_MSC_RDPS_DewPointDepression_IsbL-0200_RLatLon0.09_PT033H.grib2 2026-05-05 14:48 224K
20260505T12Z_MSC_RDPS_DewPointDepression_IsbL-0225_RLatLon0.09_PT033H.grib2 2026-05-05 14:48 252K
20260505T12Z_MSC_RDPS_DewPointDepression_IsbL-0250_RLatLon0.09_PT033H.grib2 2026-05-05 14:48 292K
20260505T12Z_MSC_RDPS_DewPointDepression_IsbL-0275_RLatLon0.09_PT033H.grib2 2026-05-05 14:48 304K
20260505T12Z_MSC_RDPS_DewPointDepression_IsbL-0300_RLatLon0.09_PT033H.grib2 2026-05-05 14:48 324K
20260505T12Z_MSC_RDPS_DewPointDepression_IsbL-0350_RLatLon0.09_PT033H.grib2 2026-05-05 14:48 335K
20260505T12Z_MSC_RDPS_DewPointDepression_IsbL-0400_RLatLon0.09_PT033H.grib2 2026-05-05 14:48 344K
20260505T12Z_MSC_RDPS_DewPointDepression_IsbL-0450_RLatLon0.09_PT033H.grib2 2026-05-05 14:48 344K
20260505T12Z_MSC_RDPS_DewPointDepression_IsbL-0500_RLatLon0.09_PT033H.grib2 2026-05-05 14:48 345K
20260505T12Z_MSC_RDPS_DewPointDepression_IsbL-0550_RLatLon0.09_PT033H.grib2 2026-05-05 14:48 356K
20260505T12Z_MSC_RDPS_DewPointDepression_IsbL-0600_RLatLon0.09_PT033H.grib2 2026-05-05 14:48 366K
20260505T12Z_MSC_RDPS_DewPointDepression_IsbL-0650_RLatLon0.09_PT033H.grib2 2026-05-05 14:48 372K
20260505T12Z_MSC_RDPS_DewPointDepression_IsbL-0700_RLatLon0.09_PT033H.grib2 2026-05-05 14:48 385K
20260505T12Z_MSC_RDPS_DewPointDepression_IsbL-0750_RLatLon0.09_PT033H.grib2 2026-05-05 14:48 408K
20260505T12Z_MSC_RDPS_DewPointDepression_IsbL-0800_RLatLon0.09_PT033H.grib2 2026-05-05 14:48 446K
20260505T12Z_MSC_RDPS_DewPointDepression_IsbL-0850_RLatLon0.09_PT033H.grib2 2026-05-05 14:48 480K
20260505T12Z_MSC_RDPS_DewPointDepression_IsbL-0875_RLatLon0.09_PT033H.grib2 2026-05-05 14:48 480K
20260505T12Z_MSC_RDPS_DewPointDepression_IsbL-0900_RLatLon0.09_PT033H.grib2 2026-05-05 14:48 473K
20260505T12Z_MSC_RDPS_DewPointDepression_IsbL-0925_RLatLon0.09_PT033H.grib2 2026-05-05 14:48 461K
20260505T12Z_MSC_RDPS_DewPointDepression_IsbL-0950_RLatLon0.09_PT033H.grib2 2026-05-05 14:48 449K
20260505T12Z_MSC_RDPS_DewPointDepression_IsbL-0970_RLatLon0.09_PT033H.grib2 2026-05-05 14:48 439K
20260505T12Z_MSC_RDPS_DewPointDepression_IsbL-0985_RLatLon0.09_PT033H.grib2 2026-05-05 14:48 437K
20260505T12Z_MSC_RDPS_DewPointDepression_IsbL-1000_RLatLon0.09_PT033H.grib2 2026-05-05 14:48 433K
20260505T12Z_MSC_RDPS_DewPointDepression_IsbL-1015_RLatLon0.09_PT033H.grib2 2026-05-05 14:48 424K
20260505T12Z_MSC_RDPS_DewPoint_AGL-2m_RLatLon0.09_PT033H.grib2 2026-05-05 14:48 399K
20260505T12Z_MSC_RDPS_DownwardLongwaveRadiationFlux-Accum_Sfc_RLatLon0.09_PT033H.grib2 2026-05-05 14:48 487K
20260505T12Z_MSC_RDPS_DownwardShortwaveRadiationFlux-Accum_NTAtm_RLatLon0.09_PT033H.grib2 2026-05-05 14:48 154K
20260505T12Z_MSC_RDPS_DownwardShortwaveRadiationFlux-Accum_Sfc_RLatLon0.09_PT033H.grib2 2026-05-05 14:48 532K
20260505T12Z_MSC_RDPS_FreezingRain-Accum1h_Sfc_RLatLon0.09_PT033H.grib2 2026-05-05 14:48 19K
20260505T12Z_MSC_RDPS_FreezingRain-Accum3h_Sfc_RLatLon0.09_PT033H.grib2 2026-05-05 14:48 21K
20260505T12Z_MSC_RDPS_FreezingRain-Accum_Sfc_RLatLon0.09_PT033H.grib2 2026-05-05 14:48 125K
20260505T12Z_MSC_RDPS_GeopotentialHeight_IsbL-0001_RLatLon0.09_PT033H.grib2 2026-05-05 14:48 347K
20260505T12Z_MSC_RDPS_GeopotentialHeight_IsbL-0005_RLatLon0.09_PT033H.grib2 2026-05-05 14:48 339K
20260505T12Z_MSC_RDPS_GeopotentialHeight_IsbL-0010_RLatLon0.09_PT033H.grib2 2026-05-05 14:48 308K
20260505T12Z_MSC_RDPS_GeopotentialHeight_IsbL-0020_RLatLon0.09_PT033H.grib2 2026-05-05 14:48 309K
20260505T12Z_MSC_RDPS_GeopotentialHeight_IsbL-0030_RLatLon0.09_PT033H.grib2 2026-05-05 14:48 407K
20260505T12Z_MSC_RDPS_GeopotentialHeight_IsbL-0050_RLatLon0.09_PT033H.grib2 2026-05-05 14:48 310K
20260505T12Z_MSC_RDPS_GeopotentialHeight_IsbL-0100_RLatLon0.09_PT033H.grib2 2026-05-05 14:48 287K
20260505T12Z_MSC_RDPS_GeopotentialHeight_IsbL-0150_RLatLon0.09_PT033H.grib2 2026-05-05 14:48 230K
20260505T12Z_MSC_RDPS_GeopotentialHeight_IsbL-0175_RLatLon0.09_PT033H.grib2 2026-05-05 14:48 232K
20260505T12Z_MSC_RDPS_GeopotentialHeight_IsbL-0200_RLatLon0.09_PT033H.grib2 2026-05-05 14:48 236K
20260505T12Z_MSC_RDPS_GeopotentialHeight_IsbL-0225_RLatLon0.09_PT033H.grib2 2026-05-05 14:48 268K
20260505T12Z_MSC_RDPS_GeopotentialHeight_IsbL-0250_RLatLon0.09_PT033H.grib2 2026-05-05 14:48 269K
20260505T12Z_MSC_RDPS_GeopotentialHeight_IsbL-0275_RLatLon0.09_PT033H.grib2 2026-05-05 14:48 238K
20260505T12Z_MSC_RDPS_GeopotentialHeight_IsbL-0300_RLatLon0.09_PT033H.grib2 2026-05-05 14:48 238K
20260505T12Z_MSC_RDPS_GeopotentialHeight_IsbL-0350_RLatLon0.09_PT033H.grib2 2026-05-05 14:48 234K
20260505T12Z_MSC_RDPS_GeopotentialHeight_IsbL-0400_RLatLon0.09_PT033H.grib2 2026-05-05 14:48 230K
20260505T12Z_MSC_RDPS_GeopotentialHeight_IsbL-0450_RLatLon0.09_PT033H.grib2 2026-05-05 14:48 297K
20260505T12Z_MSC_RDPS_GeopotentialHeight_IsbL-0500_RLatLon0.09_PT033H.grib2 2026-05-05 14:48 292K
20260505T12Z_MSC_RDPS_GeopotentialHeight_IsbL-0550_RLatLon0.09_PT033H.grib2 2026-05-05 14:48 288K
20260505T12Z_MSC_RDPS_GeopotentialHeight_IsbL-0600_RLatLon0.09_PT033H.grib2 2026-05-05 14:48 285K
20260505T12Z_MSC_RDPS_GeopotentialHeight_IsbL-0650_RLatLon0.09_PT033H.grib2 2026-05-05 14:48 257K
20260505T12Z_MSC_RDPS_GeopotentialHeight_IsbL-0700_RLatLon0.09_PT033H.grib2 2026-05-05 14:48 339K
20260505T12Z_MSC_RDPS_GeopotentialHeight_IsbL-0750_RLatLon0.09_PT033H.grib2 2026-05-05 14:48 341K
20260505T12Z_MSC_RDPS_GeopotentialHeight_IsbL-0800_RLatLon0.09_PT033H.grib2 2026-05-05 14:48 348K
20260505T12Z_MSC_RDPS_GeopotentialHeight_IsbL-0850_RLatLon0.09_PT033H.grib2 2026-05-05 14:48 389K
20260505T12Z_MSC_RDPS_GeopotentialHeight_IsbL-0875_RLatLon0.09_PT033H.grib2 2026-05-05 14:48 392K
20260505T12Z_MSC_RDPS_GeopotentialHeight_IsbL-0900_RLatLon0.09_PT033H.grib2 2026-05-05 14:48 397K
20260505T12Z_MSC_RDPS_GeopotentialHeight_IsbL-0925_RLatLon0.09_PT033H.grib2 2026-05-05 14:48 401K
20260505T12Z_MSC_RDPS_GeopotentialHeight_IsbL-0950_RLatLon0.09_PT033H.grib2 2026-05-05 14:48 371K
20260505T12Z_MSC_RDPS_GeopotentialHeight_IsbL-0970_RLatLon0.09_PT033H.grib2 2026-05-05 14:48 377K
20260505T12Z_MSC_RDPS_GeopotentialHeight_IsbL-0985_RLatLon0.09_PT033H.grib2 2026-05-05 14:48 385K
20260505T12Z_MSC_RDPS_GeopotentialHeight_IsbL-1000_RLatLon0.09_PT033H.grib2 2026-05-05 14:48 397K
20260505T12Z_MSC_RDPS_GeopotentialHeight_IsbL-1015_RLatLon0.09_PT033H.grib2 2026-05-05 14:48 413K
20260505T12Z_MSC_RDPS_Humidex_Sfc_RLatLon0.09_PT033H.grib2 2026-05-05 14:48 2.4M
20260505T12Z_MSC_RDPS_IcePellets-Accum1h_Sfc_RLatLon0.09_PT033H.grib2 2026-05-05 14:48 6.6K
20260505T12Z_MSC_RDPS_IcePellets-Accum3h_Sfc_RLatLon0.09_PT033H.grib2 2026-05-05 14:48 8.3K
20260505T12Z_MSC_RDPS_IcePellets-Accum_Sfc_RLatLon0.09_PT033H.grib2 2026-05-05 14:48 26K
20260505T12Z_MSC_RDPS_KIndex_Sfc_RLatLon0.09_PT033H.grib2 2026-05-05 14:48 2.5M
20260505T12Z_MSC_RDPS_LatentHeatNetFlux_Sfc_RLatLon0.09_PT033H.grib2 2026-05-05 14:48 308K
20260505T12Z_MSC_RDPS_LiftedIndex-MU-VT_IsbL-0500_RLatLon0.09_PT033H.grib2 2026-05-05 14:48 2.4M
20260505T12Z_MSC_RDPS_NetLongwaveRadiationFlux-Accum_Sfc_RLatLon0.09_PT033H.grib2 2026-05-05 14:48 495K
20260505T12Z_MSC_RDPS_NetShortwaveRadiationFlux-Accum_Sfc_RLatLon0.09_PT033H.grib2 2026-05-05 14:48 528K
20260505T12Z_MSC_RDPS_PlanetaryBoundaryLayerHeight_Sfc_RLatLon0.09_PT033H.grib2 2026-05-05 14:48 1.0M
20260505T12Z_MSC_RDPS_Precip-Accum1h_Sfc_RLatLon0.09_PT033H.grib2 2026-05-05 14:48 1.2M
20260505T12Z_MSC_RDPS_Precip-Accum3h_Sfc_RLatLon0.09_PT033H.grib2 2026-05-05 14:48 1.3M
20260505T12Z_MSC_RDPS_Precip-Accum_Sfc_RLatLon0.09_PT033H.grib2 2026-05-05 14:48 1.9M
20260505T12Z_MSC_RDPS_PrecipRate_Sfc_RLatLon0.09_PT033H.grib2 2026-05-05 14:48 186K
20260505T12Z_MSC_RDPS_PrecipType-Instant_Sfc_RLatLon0.09_PT033H.grib2 2026-05-05 14:48 578K
20260505T12Z_MSC_RDPS_Pressure-Trend3h_Sfc_RLatLon0.09_PT033H.grib2 2026-05-05 14:48 1.2M
20260505T12Z_MSC_RDPS_Pressure_MSL_RLatLon0.09_PT033H.grib2 2026-05-05 14:48 297K
20260505T12Z_MSC_RDPS_Pressure_PVU-1.5_RLatLon0.09_PT033H.grib2 2026-05-05 14:48 2.3M
20260505T12Z_MSC_RDPS_Pressure_PVU-1_RLatLon0.09_PT033H.grib2 2026-05-05 14:48 2.4M
20260505T12Z_MSC_RDPS_Pressure_PVU-2_RLatLon0.09_PT033H.grib2 2026-05-05 14:48 2.4M
20260505T12Z_MSC_RDPS_Pressure_Sfc_RLatLon0.09_PT033H.grib2 2026-05-05 14:48 499K
20260505T12Z_MSC_RDPS_RadiativeTemp_Sfc_RLatLon0.09_PT033H.grib2 2026-05-05 14:48 325K
20260505T12Z_MSC_RDPS_Rain-Accum1h_Sfc_RLatLon0.09_PT033H.grib2 2026-05-05 14:48 607K
20260505T12Z_MSC_RDPS_Rain-Accum3h_Sfc_RLatLon0.09_PT033H.grib2 2026-05-05 14:48 619K
20260505T12Z_MSC_RDPS_Rain-Accum_Sfc_RLatLon0.09_PT033H.grib2 2026-05-05 14:48 1.6M
20260505T12Z_MSC_RDPS_RelativeHumidity_AGL-2m_RLatLon0.09_PT033H.grib2 2026-05-05 14:48 1.0M
20260505T12Z_MSC_RDPS_RelativeHumidity_IsbL-0010_RLatLon0.09_PT033H.grib2 2026-05-05 14:48 578K
20260505T12Z_MSC_RDPS_RelativeHumidity_IsbL-0020_RLatLon0.09_PT033H.grib2 2026-05-05 14:48 657K
20260505T12Z_MSC_RDPS_RelativeHumidity_IsbL-0030_RLatLon0.09_PT033H.grib2 2026-05-05 14:48 602K
20260505T12Z_MSC_RDPS_RelativeHumidity_IsbL-0050_RLatLon0.09_PT033H.grib2 2026-05-05 14:48 359K
20260505T12Z_MSC_RDPS_RelativeHumidity_IsbL-0100_RLatLon0.09_PT033H.grib2 2026-05-05 14:48 273K
20260505T12Z_MSC_RDPS_RelativeHumidity_IsbL-0150_RLatLon0.09_PT033H.grib2 2026-05-05 14:48 414K
20260505T12Z_MSC_RDPS_RelativeHumidity_IsbL-0175_RLatLon0.09_PT033H.grib2 2026-05-05 14:48 473K
20260505T12Z_MSC_RDPS_RelativeHumidity_IsbL-0200_RLatLon0.09_PT033H.grib2 2026-05-05 14:48 548K
20260505T12Z_MSC_RDPS_RelativeHumidity_IsbL-0225_RLatLon0.09_PT033H.grib2 2026-05-05 14:48 607K
20260505T12Z_MSC_RDPS_RelativeHumidity_IsbL-0250_RLatLon0.09_PT033H.grib2 2026-05-05 14:48 667K
20260505T12Z_MSC_RDPS_RelativeHumidity_IsbL-0275_RLatLon0.09_PT033H.grib2 2026-05-05 14:48 694K
20260505T12Z_MSC_RDPS_RelativeHumidity_IsbL-0300_RLatLon0.09_PT033H.grib2 2026-05-05 14:48 743K
20260505T12Z_MSC_RDPS_RelativeHumidity_IsbL-0350_RLatLon0.09_PT033H.grib2 2026-05-05 14:48 774K
20260505T12Z_MSC_RDPS_RelativeHumidity_IsbL-0400_RLatLon0.09_PT033H.grib2 2026-05-05 14:48 789K
20260505T12Z_MSC_RDPS_RelativeHumidity_IsbL-0450_RLatLon0.09_PT033H.grib2 2026-05-05 14:48 789K
20260505T12Z_MSC_RDPS_RelativeHumidity_IsbL-0500_RLatLon0.09_PT033H.grib2 2026-05-05 14:48 789K
20260505T12Z_MSC_RDPS_RelativeHumidity_IsbL-0550_RLatLon0.09_PT033H.grib2 2026-05-05 14:48 807K
20260505T12Z_MSC_RDPS_RelativeHumidity_IsbL-0600_RLatLon0.09_PT033H.grib2 2026-05-05 14:48 836K
20260505T12Z_MSC_RDPS_RelativeHumidity_IsbL-0650_RLatLon0.09_PT033H.grib2 2026-05-05 14:48 841K
20260505T12Z_MSC_RDPS_RelativeHumidity_IsbL-0700_RLatLon0.09_PT033H.grib2 2026-05-05 14:48 871K
20260505T12Z_MSC_RDPS_RelativeHumidity_IsbL-0750_RLatLon0.09_PT033H.grib2 2026-05-05 14:48 923K
20260505T12Z_MSC_RDPS_RelativeHumidity_IsbL-0800_RLatLon0.09_PT033H.grib2 2026-05-05 14:48 1.0M
20260505T12Z_MSC_RDPS_RelativeHumidity_IsbL-0850_RLatLon0.09_PT033H.grib2 2026-05-05 14:48 1.0M
20260505T12Z_MSC_RDPS_RelativeHumidity_IsbL-0875_RLatLon0.09_PT033H.grib2 2026-05-05 14:48 1.1M
20260505T12Z_MSC_RDPS_RelativeHumidity_IsbL-0900_RLatLon0.09_PT033H.grib2 2026-05-05 14:48 1.1M
20260505T12Z_MSC_RDPS_RelativeHumidity_IsbL-0925_RLatLon0.09_PT033H.grib2 2026-05-05 14:48 1.1M
20260505T12Z_MSC_RDPS_RelativeHumidity_IsbL-0950_RLatLon0.09_PT033H.grib2 2026-05-05 14:48 1.1M
20260505T12Z_MSC_RDPS_RelativeHumidity_IsbL-0970_RLatLon0.09_PT033H.grib2 2026-05-05 14:48 1.0M
20260505T12Z_MSC_RDPS_RelativeHumidity_IsbL-0985_RLatLon0.09_PT033H.grib2 2026-05-05 14:48 1.0M
20260505T12Z_MSC_RDPS_RelativeHumidity_IsbL-1000_RLatLon0.09_PT033H.grib2 2026-05-05 14:48 1.0M
20260505T12Z_MSC_RDPS_RelativeHumidity_IsbL-1015_RLatLon0.09_PT033H.grib2 2026-05-05 14:48 1.0M
20260505T12Z_MSC_RDPS_Runoff-Accum_Sfc_RLatLon0.09_PT033H.grib2 2026-05-05 14:48 64K
20260505T12Z_MSC_RDPS_SWEATIndex_Sfc_RLatLon0.09_PT033H.grib2 2026-05-05 14:48 2.4M
20260505T12Z_MSC_RDPS_SeeingIndex_EAtm_RLatLon0.09_PT033H.grib2 2026-05-05 14:48 1.0M
20260505T12Z_MSC_RDPS_SensibleHeatNetFlux_Sfc_RLatLon0.09_PT033H.grib2 2026-05-05 14:48 358K
20260505T12Z_MSC_RDPS_ShowalterIndex_IsbL-0500_RLatLon0.09_PT033H.grib2 2026-05-05 14:48 2.6M
20260505T12Z_MSC_RDPS_SkyTransparencyIndex_EAtm_RLatLon0.09_PT033H.grib2 2026-05-05 14:48 704K
20260505T12Z_MSC_RDPS_Snow-Accum1h_Sfc_RLatLon0.09_PT033H.grib2 2026-05-05 14:48 448K
20260505T12Z_MSC_RDPS_Snow-Accum3h_Sfc_RLatLon0.09_PT033H.grib2 2026-05-05 14:48 407K
20260505T12Z_MSC_RDPS_Snow-Accum_Sfc_RLatLon0.09_PT033H.grib2 2026-05-05 14:48 748K
20260505T12Z_MSC_RDPS_SnowDensity_Sfc_RLatLon0.09_PT033H.grib2 2026-05-05 14:48 175K
20260505T12Z_MSC_RDPS_SnowDepth_Sfc_RLatLon0.09_PT033H.grib2 2026-05-05 14:48 651K
20260505T12Z_MSC_RDPS_SoilTemp_DBS-0to10cm_RLatLon0.09_PT033H.grib2 2026-05-05 14:48 236K
20260505T12Z_MSC_RDPS_SoilTemp_Sfc_RLatLon0.09_PT033H.grib2 2026-05-05 14:48 293K
20260505T12Z_MSC_RDPS_SoilVolumetricIceContent_Sfc_RLatLon0.09_PT033H.grib2 2026-05-05 14:48 150K
20260505T12Z_MSC_RDPS_SoilVolumetricWaterContent_DBS-0to10cm_RLatLon0.09_PT033H.grib2 2026-05-05 14:48 280K
20260505T12Z_MSC_RDPS_SoilVolumetricWaterContent_DBS-0to1cm_RLatLon0.09_PT033H.grib2 2026-05-05 14:48 341K
20260505T12Z_MSC_RDPS_SpecificHumidity_AGL-120m_RLatLon0.09_PT033H.grib2 2026-05-05 14:48 499K
20260505T12Z_MSC_RDPS_SpecificHumidity_AGL-2m_RLatLon0.09_PT033H.grib2 2026-05-05 14:48 669K
20260505T12Z_MSC_RDPS_SpecificHumidity_AGL-40m_RLatLon0.09_PT033H.grib2 2026-05-05 14:48 503K
20260505T12Z_MSC_RDPS_SpecificHumidity_AGL-80m_RLatLon0.09_PT033H.grib2 2026-05-05 14:48 500K
20260505T12Z_MSC_RDPS_SpecificHumidity_IsbL-0001_RLatLon0.09_PT033H.grib2 2026-05-05 14:48 410K
20260505T12Z_MSC_RDPS_SpecificHumidity_IsbL-0005_RLatLon0.09_PT033H.grib2 2026-05-05 14:48 375K
20260505T12Z_MSC_RDPS_SpecificHumidity_IsbL-0010_RLatLon0.09_PT033H.grib2 2026-05-05 14:48 408K
20260505T12Z_MSC_RDPS_SpecificHumidity_IsbL-0020_RLatLon0.09_PT033H.grib2 2026-05-05 14:48 386K
20260505T12Z_MSC_RDPS_SpecificHumidity_IsbL-0030_RLatLon0.09_PT033H.grib2 2026-05-05 14:48 374K
20260505T12Z_MSC_RDPS_SpecificHumidity_IsbL-0050_RLatLon0.09_PT033H.grib2 2026-05-05 14:48 482K
20260505T12Z_MSC_RDPS_SpecificHumidity_IsbL-0100_RLatLon0.09_PT033H.grib2 2026-05-05 14:48 447K
20260505T12Z_MSC_RDPS_SpecificHumidity_IsbL-0150_RLatLon0.09_PT033H.grib2 2026-05-05 14:48 460K
20260505T12Z_MSC_RDPS_SpecificHumidity_IsbL-0175_RLatLon0.09_PT033H.grib2 2026-05-05 14:48 446K
20260505T12Z_MSC_RDPS_SpecificHumidity_IsbL-0200_RLatLon0.09_PT033H.grib2 2026-05-05 14:48 456K
20260505T12Z_MSC_RDPS_SpecificHumidity_IsbL-0225_RLatLon0.09_PT033H.grib2 2026-05-05 14:48 447K
20260505T12Z_MSC_RDPS_SpecificHumidity_IsbL-0250_RLatLon0.09_PT033H.grib2 2026-05-05 14:48 546K
20260505T12Z_MSC_RDPS_SpecificHumidity_IsbL-0275_RLatLon0.09_PT033H.grib2 2026-05-05 14:48 464K
20260505T12Z_MSC_RDPS_SpecificHumidity_IsbL-0300_RLatLon0.09_PT033H.grib2 2026-05-05 14:48 540K
20260505T12Z_MSC_RDPS_SpecificHumidity_IsbL-0350_RLatLon0.09_PT033H.grib2 2026-05-05 14:48 541K
20260505T12Z_MSC_RDPS_SpecificHumidity_IsbL-0400_RLatLon0.09_PT033H.grib2 2026-05-05 14:48 524K
20260505T12Z_MSC_RDPS_SpecificHumidity_IsbL-0450_RLatLon0.09_PT033H.grib2 2026-05-05 14:48 570K
20260505T12Z_MSC_RDPS_SpecificHumidity_IsbL-0500_RLatLon0.09_PT033H.grib2 2026-05-05 14:48 501K
20260505T12Z_MSC_RDPS_SpecificHumidity_IsbL-0550_RLatLon0.09_PT033H.grib2 2026-05-05 14:48 574K
20260505T12Z_MSC_RDPS_SpecificHumidity_IsbL-0600_RLatLon0.09_PT033H.grib2 2026-05-05 14:48 626K
20260505T12Z_MSC_RDPS_SpecificHumidity_IsbL-0650_RLatLon0.09_PT033H.grib2 2026-05-05 14:48 545K
20260505T12Z_MSC_RDPS_SpecificHumidity_IsbL-0700_RLatLon0.09_PT033H.grib2 2026-05-05 14:48 591K
20260505T12Z_MSC_RDPS_SpecificHumidity_IsbL-0750_RLatLon0.09_PT033H.grib2 2026-05-05 14:48 661K
20260505T12Z_MSC_RDPS_SpecificHumidity_IsbL-0800_RLatLon0.09_PT033H.grib2 2026-05-05 14:48 738K
20260505T12Z_MSC_RDPS_SpecificHumidity_IsbL-0850_RLatLon0.09_PT033H.grib2 2026-05-05 14:48 680K
20260505T12Z_MSC_RDPS_SpecificHumidity_IsbL-0875_RLatLon0.09_PT033H.grib2 2026-05-05 14:48 704K
20260505T12Z_MSC_RDPS_SpecificHumidity_IsbL-0900_RLatLon0.09_PT033H.grib2 2026-05-05 14:48 716K
20260505T12Z_MSC_RDPS_SpecificHumidity_IsbL-0925_RLatLon0.09_PT033H.grib2 2026-05-05 14:48 719K
20260505T12Z_MSC_RDPS_SpecificHumidity_IsbL-0950_RLatLon0.09_PT033H.grib2 2026-05-05 14:48 717K
20260505T12Z_MSC_RDPS_SpecificHumidity_IsbL-0970_RLatLon0.09_PT033H.grib2 2026-05-05 14:48 707K
20260505T12Z_MSC_RDPS_SpecificHumidity_IsbL-0985_RLatLon0.09_PT033H.grib2 2026-05-05 14:48 700K
20260505T12Z_MSC_RDPS_SpecificHumidity_IsbL-1000_RLatLon0.09_PT033H.grib2 2026-05-05 14:48 697K
20260505T12Z_MSC_RDPS_SpecificHumidity_IsbL-1015_RLatLon0.09_PT033H.grib2 2026-05-05 14:48 684K
20260505T12Z_MSC_RDPS_SpecificHumidity_Sfc_RLatLon0.09_PT033H.grib2 2026-05-05 14:48 348K
20260505T12Z_MSC_RDPS_StormRelativeHelicity_EtaL-10000_RLatLon0.09_PT033H.grib2 2026-05-05 14:48 1.1M
20260505T12Z_MSC_RDPS_StormSeverityIndex_EtaL-10000_RLatLon0.09_PT033H.grib2 2026-05-05 14:48 1.1M
20260505T12Z_MSC_RDPS_Thickness_IsbL-0850to0700_RLatLon0.09_PT033H.grib2 2026-05-05 14:48 176K
20260505T12Z_MSC_RDPS_Thickness_IsbL-1000to0500_RLatLon0.09_PT033H.grib2 2026-05-05 14:48 197K
20260505T12Z_MSC_RDPS_Thickness_IsbL-1000to0850_RLatLon0.09_PT033H.grib2 2026-05-05 14:48 186K
20260505T12Z_MSC_RDPS_TotalCloudCover_Sfc_RLatLon0.09_PT033H.grib2 2026-05-05 14:48 650K
20260505T12Z_MSC_RDPS_TotalTotalsIndex_Sfc_RLatLon0.09_PT033H.grib2 2026-05-05 14:48 2.4M
20260505T12Z_MSC_RDPS_UVIndex-ClearSky_Sfc_RLatLon0.09_PT033H.grib2 2026-05-05 14:48 204K
20260505T12Z_MSC_RDPS_UVIndex_Sfc_RLatLon0.09_PT033H.grib2 2026-05-05 14:48 476K
20260505T12Z_MSC_RDPS_UpwardLongwaveRadiationFlux_NTAtm_RLatLon0.09_PT033H.grib2 2026-05-05 14:48 378K
20260505T12Z_MSC_RDPS_UpwardShortwaveRadiationFlux_NTAtm_RLatLon0.09_PT033H.grib2 2026-05-05 14:48 510K
20260505T12Z_MSC_RDPS_VerticalVelocity_IsbL-0250_RLatLon0.09_PT033H.grib2 2026-05-05 14:48 581K
20260505T12Z_MSC_RDPS_VerticalVelocity_IsbL-0500_RLatLon0.09_PT033H.grib2 2026-05-05 14:48 544K
20260505T12Z_MSC_RDPS_VerticalVelocity_IsbL-0700_RLatLon0.09_PT033H.grib2 2026-05-05 14:48 595K
20260505T12Z_MSC_RDPS_VerticalVelocity_IsbL-0850_RLatLon0.09_PT033H.grib2 2026-05-05 14:48 699K
20260505T12Z_MSC_RDPS_VerticalWindShear_EtaL-6500_RLatLon0.09_PT033H.grib2 2026-05-05 14:48 1.2M
20260505T12Z_MSC_RDPS_WindChill_Sfc_RLatLon0.09_PT033H.grib2 2026-05-05 14:48 1.1M
20260505T12Z_MSC_RDPS_WindDir_AGL-10m_RLatLon0.09_PT033H.grib2 2026-05-05 14:48 945K
20260505T12Z_MSC_RDPS_WindDir_AGL-120m_RLatLon0.09_PT033H.grib2 2026-05-05 14:48 594K
20260505T12Z_MSC_RDPS_WindDir_AGL-40m_RLatLon0.09_PT033H.grib2 2026-05-05 14:48 616K
20260505T12Z_MSC_RDPS_WindDir_AGL-80m_RLatLon0.09_PT033H.grib2 2026-05-05 14:48 603K
20260505T12Z_MSC_RDPS_WindDir_IsbL-0001_RLatLon0.09_PT033H.grib2 2026-05-05 14:48 294K
20260505T12Z_MSC_RDPS_WindDir_IsbL-0005_RLatLon0.09_PT033H.grib2 2026-05-05 14:48 376K
20260505T12Z_MSC_RDPS_WindDir_IsbL-0010_RLatLon0.09_PT033H.grib2 2026-05-05 14:48 380K
20260505T12Z_MSC_RDPS_WindDir_IsbL-0020_RLatLon0.09_PT033H.grib2 2026-05-05 14:48 403K
20260505T12Z_MSC_RDPS_WindDir_IsbL-0030_RLatLon0.09_PT033H.grib2 2026-05-05 14:48 404K
20260505T12Z_MSC_RDPS_WindDir_IsbL-0050_RLatLon0.09_PT033H.grib2 2026-05-05 14:48 417K
20260505T12Z_MSC_RDPS_WindDir_IsbL-0100_RLatLon0.09_PT033H.grib2 2026-05-05 14:48 413K
20260505T12Z_MSC_RDPS_WindDir_IsbL-0150_RLatLon0.09_PT033H.grib2 2026-05-05 14:48 412K
20260505T12Z_MSC_RDPS_WindDir_IsbL-0175_RLatLon0.09_PT033H.grib2 2026-05-05 14:48 436K
20260505T12Z_MSC_RDPS_WindDir_IsbL-0200_RLatLon0.09_PT033H.grib2 2026-05-05 14:48 459K
20260505T12Z_MSC_RDPS_WindDir_IsbL-0225_RLatLon0.09_PT033H.grib2 2026-05-05 14:48 461K
20260505T12Z_MSC_RDPS_WindDir_IsbL-0250_RLatLon0.09_PT033H.grib2 2026-05-05 14:48 455K
20260505T12Z_MSC_RDPS_WindDir_IsbL-0275_RLatLon0.09_PT033H.grib2 2026-05-05 14:48 476K
20260505T12Z_MSC_RDPS_WindDir_IsbL-0300_RLatLon0.09_PT033H.grib2 2026-05-05 14:48 471K
20260505T12Z_MSC_RDPS_WindDir_IsbL-0350_RLatLon0.09_PT033H.grib2 2026-05-05 14:48 498K
20260505T12Z_MSC_RDPS_WindDir_IsbL-0400_RLatLon0.09_PT033H.grib2 2026-05-05 14:48 516K
20260505T12Z_MSC_RDPS_WindDir_IsbL-0450_RLatLon0.09_PT033H.grib2 2026-05-05 14:48 524K
20260505T12Z_MSC_RDPS_WindDir_IsbL-0500_RLatLon0.09_PT033H.grib2 2026-05-05 14:48 537K
20260505T12Z_MSC_RDPS_WindDir_IsbL-0550_RLatLon0.09_PT033H.grib2 2026-05-05 14:48 554K
20260505T12Z_MSC_RDPS_WindDir_IsbL-0600_RLatLon0.09_PT033H.grib2 2026-05-05 14:48 582K
20260505T12Z_MSC_RDPS_WindDir_IsbL-0650_RLatLon0.09_PT033H.grib2 2026-05-05 14:48 628K
20260505T12Z_MSC_RDPS_WindDir_IsbL-0700_RLatLon0.09_PT033H.grib2 2026-05-05 14:48 674K
20260505T12Z_MSC_RDPS_WindDir_IsbL-0750_RLatLon0.09_PT033H.grib2 2026-05-05 14:48 719K
20260505T12Z_MSC_RDPS_WindDir_IsbL-0800_RLatLon0.09_PT033H.grib2 2026-05-05 14:48 783K
20260505T12Z_MSC_RDPS_WindDir_IsbL-0850_RLatLon0.09_PT033H.grib2 2026-05-05 14:48 848K
20260505T12Z_MSC_RDPS_WindDir_IsbL-0875_RLatLon0.09_PT033H.grib2 2026-05-05 14:48 872K
20260505T12Z_MSC_RDPS_WindDir_IsbL-0900_RLatLon0.09_PT033H.grib2 2026-05-05 14:48 886K
20260505T12Z_MSC_RDPS_WindDir_IsbL-0925_RLatLon0.09_PT033H.grib2 2026-05-05 14:48 899K
20260505T12Z_MSC_RDPS_WindDir_IsbL-0950_RLatLon0.09_PT033H.grib2 2026-05-05 14:48 898K
20260505T12Z_MSC_RDPS_WindDir_IsbL-0970_RLatLon0.09_PT033H.grib2 2026-05-05 14:48 903K
20260505T12Z_MSC_RDPS_WindDir_IsbL-0985_RLatLon0.09_PT033H.grib2 2026-05-05 14:48 909K
20260505T12Z_MSC_RDPS_WindDir_IsbL-1000_RLatLon0.09_PT033H.grib2 2026-05-05 14:48 923K
20260505T12Z_MSC_RDPS_WindDir_IsbL-1015_RLatLon0.09_PT033H.grib2 2026-05-05 14:48 937K
20260505T12Z_MSC_RDPS_WindGust-Max_AGL-10m_RLatLon0.09_PT033H.grib2 2026-05-05 14:48 944K
20260505T12Z_MSC_RDPS_WindGust-Min_AGL-10m_RLatLon0.09_PT033H.grib2 2026-05-05 14:48 1.0M
20260505T12Z_MSC_RDPS_WindGust_AGL-10m_RLatLon0.09_PT033H.grib2 2026-05-05 14:48 1.0M
20260505T12Z_MSC_RDPS_WindSpeed_AGL-10m_RLatLon0.09_PT033H.grib2 2026-05-05 14:48 837K
20260505T12Z_MSC_RDPS_WindSpeed_AGL-120m_RLatLon0.09_PT033H.grib2 2026-05-05 14:48 532K
20260505T12Z_MSC_RDPS_WindSpeed_AGL-40m_RLatLon0.09_PT033H.grib2 2026-05-05 14:48 538K
20260505T12Z_MSC_RDPS_WindSpeed_AGL-80m_RLatLon0.09_PT033H.grib2 2026-05-05 14:48 534K
20260505T12Z_MSC_RDPS_WindSpeed_IsbL-0001_RLatLon0.09_PT033H.grib2 2026-05-05 14:48 254K
20260505T12Z_MSC_RDPS_WindSpeed_IsbL-0005_RLatLon0.09_PT033H.grib2 2026-05-05 14:48 293K
20260505T12Z_MSC_RDPS_WindSpeed_IsbL-0010_RLatLon0.09_PT033H.grib2 2026-05-05 14:48 401K
20260505T12Z_MSC_RDPS_WindSpeed_IsbL-0020_RLatLon0.09_PT033H.grib2 2026-05-05 14:48 422K
20260505T12Z_MSC_RDPS_WindSpeed_IsbL-0030_RLatLon0.09_PT033H.grib2 2026-05-05 14:48 319K
20260505T12Z_MSC_RDPS_WindSpeed_IsbL-0050_RLatLon0.09_PT033H.grib2 2026-05-05 14:48 348K
20260505T12Z_MSC_RDPS_WindSpeed_IsbL-0100_RLatLon0.09_PT033H.grib2 2026-05-05 14:48 435K
20260505T12Z_MSC_RDPS_WindSpeed_IsbL-0150_RLatLon0.09_PT033H.grib2 2026-05-05 14:48 401K
20260505T12Z_MSC_RDPS_WindSpeed_IsbL-0175_RLatLon0.09_PT033H.grib2 2026-05-05 14:48 425K
20260505T12Z_MSC_RDPS_WindSpeed_IsbL-0200_RLatLon0.09_PT033H.grib2 2026-05-05 14:48 439K
20260505T12Z_MSC_RDPS_WindSpeed_IsbL-0225_RLatLon0.09_PT033H.grib2 2026-05-05 14:48 442K
20260505T12Z_MSC_RDPS_WindSpeed_IsbL-0250_RLatLon0.09_PT033H.grib2 2026-05-05 14:48 443K
20260505T12Z_MSC_RDPS_WindSpeed_IsbL-0275_RLatLon0.09_PT033H.grib2 2026-05-05 14:48 461K
20260505T12Z_MSC_RDPS_WindSpeed_IsbL-0300_RLatLon0.09_PT033H.grib2 2026-05-05 14:48 461K
20260505T12Z_MSC_RDPS_WindSpeed_IsbL-0350_RLatLon0.09_PT033H.grib2 2026-05-05 14:48 477K
20260505T12Z_MSC_RDPS_WindSpeed_IsbL-0400_RLatLon0.09_PT033H.grib2 2026-05-05 14:48 479K
20260505T12Z_MSC_RDPS_WindSpeed_IsbL-0450_RLatLon0.09_PT033H.grib2 2026-05-05 14:48 459K
20260505T12Z_MSC_RDPS_WindSpeed_IsbL-0500_RLatLon0.09_PT033H.grib2 2026-05-05 14:48 460K
20260505T12Z_MSC_RDPS_WindSpeed_IsbL-0550_RLatLon0.09_PT033H.grib2 2026-05-05 14:48 577K
20260505T12Z_MSC_RDPS_WindSpeed_IsbL-0600_RLatLon0.09_PT033H.grib2 2026-05-05 14:48 587K
20260505T12Z_MSC_RDPS_WindSpeed_IsbL-0650_RLatLon0.09_PT033H.grib2 2026-05-05 14:48 610K
20260505T12Z_MSC_RDPS_WindSpeed_IsbL-0700_RLatLon0.09_PT033H.grib2 2026-05-05 14:48 636K
20260505T12Z_MSC_RDPS_WindSpeed_IsbL-0750_RLatLon0.09_PT033H.grib2 2026-05-05 14:48 711K
20260505T12Z_MSC_RDPS_WindSpeed_IsbL-0800_RLatLon0.09_PT033H.grib2 2026-05-05 14:48 758K
20260505T12Z_MSC_RDPS_WindSpeed_IsbL-0850_RLatLon0.09_PT033H.grib2 2026-05-05 14:48 817K
20260505T12Z_MSC_RDPS_WindSpeed_IsbL-0875_RLatLon0.09_PT033H.grib2 2026-05-05 14:48 838K
20260505T12Z_MSC_RDPS_WindSpeed_IsbL-0900_RLatLon0.09_PT033H.grib2 2026-05-05 14:48 806K
20260505T12Z_MSC_RDPS_WindSpeed_IsbL-0925_RLatLon0.09_PT033H.grib2 2026-05-05 14:48 865K
20260505T12Z_MSC_RDPS_WindSpeed_IsbL-0950_RLatLon0.09_PT033H.grib2 2026-05-05 14:48 865K
20260505T12Z_MSC_RDPS_WindSpeed_IsbL-0970_RLatLon0.09_PT033H.grib2 2026-05-05 14:48 863K
20260505T12Z_MSC_RDPS_WindSpeed_IsbL-0985_RLatLon0.09_PT033H.grib2 2026-05-05 14:48 854K
20260505T12Z_MSC_RDPS_WindSpeed_IsbL-1000_RLatLon0.09_PT033H.grib2 2026-05-05 14:48 848K
20260505T12Z_MSC_RDPS_WindSpeed_IsbL-1015_RLatLon0.09_PT033H.grib2 2026-05-05 14:48 838K
20260505T12Z_MSC_RDPS_WindU_AGL-10m_RLatLon0.09_PT033H.grib2 2026-05-05 14:48 435K
20260505T12Z_MSC_RDPS_WindU_AGL-120m_RLatLon0.09_PT033H.grib2 2026-05-05 14:48 416K
20260505T12Z_MSC_RDPS_WindU_AGL-40m_RLatLon0.09_PT033H.grib2 2026-05-05 14:48 537K
20260505T12Z_MSC_RDPS_WindU_AGL-80m_RLatLon0.09_PT033H.grib2 2026-05-05 14:48 417K
20260505T12Z_MSC_RDPS_WindU_IsbL-0001_RLatLon0.09_PT033H.grib2 2026-05-05 14:48 243K
20260505T12Z_MSC_RDPS_WindU_IsbL-0005_RLatLon0.09_PT033H.grib2 2026-05-05 14:48 327K
20260505T12Z_MSC_RDPS_WindU_IsbL-0010_RLatLon0.09_PT033H.grib2 2026-05-05 14:48 299K
20260505T12Z_MSC_RDPS_WindU_IsbL-0020_RLatLon0.09_PT033H.grib2 2026-05-05 14:48 316K
20260505T12Z_MSC_RDPS_WindU_IsbL-0030_RLatLon0.09_PT033H.grib2 2026-05-05 14:48 351K
20260505T12Z_MSC_RDPS_WindU_IsbL-0050_RLatLon0.09_PT033H.grib2 2026-05-05 14:48 378K
20260505T12Z_MSC_RDPS_WindU_IsbL-0100_RLatLon0.09_PT033H.grib2 2026-05-05 14:48 333K
20260505T12Z_MSC_RDPS_WindU_IsbL-0150_RLatLon0.09_PT033H.grib2 2026-05-05 14:48 395K
20260505T12Z_MSC_RDPS_WindU_IsbL-0175_RLatLon0.09_PT033H.grib2 2026-05-05 14:48 418K
20260505T12Z_MSC_RDPS_WindU_IsbL-0200_RLatLon0.09_PT033H.grib2 2026-05-05 14:48 335K
20260505T12Z_MSC_RDPS_WindU_IsbL-0225_RLatLon0.09_PT033H.grib2 2026-05-05 14:48 337K
20260505T12Z_MSC_RDPS_WindU_IsbL-0250_RLatLon0.09_PT033H.grib2 2026-05-05 14:48 336K
20260505T12Z_MSC_RDPS_WindU_IsbL-0275_RLatLon0.09_PT033H.grib2 2026-05-05 14:48 350K
20260505T12Z_MSC_RDPS_WindU_IsbL-0300_RLatLon0.09_PT033H.grib2 2026-05-05 14:48 349K
20260505T12Z_MSC_RDPS_WindU_IsbL-0350_RLatLon0.09_PT033H.grib2 2026-05-05 14:48 361K
20260505T12Z_MSC_RDPS_WindU_IsbL-0400_RLatLon0.09_PT033H.grib2 2026-05-05 14:48 467K
20260505T12Z_MSC_RDPS_WindU_IsbL-0450_RLatLon0.09_PT033H.grib2 2026-05-05 14:48 465K
20260505T12Z_MSC_RDPS_WindU_IsbL-0500_RLatLon0.09_PT033H.grib2 2026-05-05 14:48 465K
20260505T12Z_MSC_RDPS_WindU_IsbL-0550_RLatLon0.09_PT033H.grib2 2026-05-05 14:48 467K
20260505T12Z_MSC_RDPS_WindU_IsbL-0600_RLatLon0.09_PT033H.grib2 2026-05-05 14:48 476K
20260505T12Z_MSC_RDPS_WindU_IsbL-0650_RLatLon0.09_PT033H.grib2 2026-05-05 14:48 496K
20260505T12Z_MSC_RDPS_WindU_IsbL-0700_RLatLon0.09_PT033H.grib2 2026-05-05 14:48 519K
20260505T12Z_MSC_RDPS_WindU_IsbL-0750_RLatLon0.09_PT033H.grib2 2026-05-05 14:48 545K
20260505T12Z_MSC_RDPS_WindU_IsbL-0800_RLatLon0.09_PT033H.grib2 2026-05-05 14:48 584K
20260505T12Z_MSC_RDPS_WindU_IsbL-0850_RLatLon0.09_PT033H.grib2 2026-05-05 14:48 633K
20260505T12Z_MSC_RDPS_WindU_IsbL-0875_RLatLon0.09_PT033H.grib2 2026-05-05 14:48 650K
20260505T12Z_MSC_RDPS_WindU_IsbL-0900_RLatLon0.09_PT033H.grib2 2026-05-05 14:48 660K
20260505T12Z_MSC_RDPS_WindU_IsbL-0925_RLatLon0.09_PT033H.grib2 2026-05-05 14:48 668K
20260505T12Z_MSC_RDPS_WindU_IsbL-0950_RLatLon0.09_PT033H.grib2 2026-05-05 14:48 664K
20260505T12Z_MSC_RDPS_WindU_IsbL-0970_RLatLon0.09_PT033H.grib2 2026-05-05 14:48 656K
20260505T12Z_MSC_RDPS_WindU_IsbL-0985_RLatLon0.09_PT033H.grib2 2026-05-05 14:48 652K
20260505T12Z_MSC_RDPS_WindU_IsbL-1000_RLatLon0.09_PT033H.grib2 2026-05-05 14:48 649K
20260505T12Z_MSC_RDPS_WindU_IsbL-1015_RLatLon0.09_PT033H.grib2 2026-05-05 14:48 781K
20260505T12Z_MSC_RDPS_WindV_AGL-10m_RLatLon0.09_PT033H.grib2 2026-05-05 14:48 431K
20260505T12Z_MSC_RDPS_WindV_AGL-120m_RLatLon0.09_PT033H.grib2 2026-05-05 14:48 413K
20260505T12Z_MSC_RDPS_WindV_AGL-40m_RLatLon0.09_PT033H.grib2 2026-05-05 14:48 532K
20260505T12Z_MSC_RDPS_WindV_AGL-80m_RLatLon0.09_PT033H.grib2 2026-05-05 14:48 530K
20260505T12Z_MSC_RDPS_WindV_IsbL-0001_RLatLon0.09_PT033H.grib2 2026-05-05 14:48 294K
20260505T12Z_MSC_RDPS_WindV_IsbL-0005_RLatLon0.09_PT033H.grib2 2026-05-05 14:48 288K
20260505T12Z_MSC_RDPS_WindV_IsbL-0010_RLatLon0.09_PT033H.grib2 2026-05-05 14:48 300K
20260505T12Z_MSC_RDPS_WindV_IsbL-0020_RLatLon0.09_PT033H.grib2 2026-05-05 14:48 357K
20260505T12Z_MSC_RDPS_WindV_IsbL-0030_RLatLon0.09_PT033H.grib2 2026-05-05 14:48 316K
20260505T12Z_MSC_RDPS_WindV_IsbL-0050_RLatLon0.09_PT033H.grib2 2026-05-05 14:48 342K
20260505T12Z_MSC_RDPS_WindV_IsbL-0100_RLatLon0.09_PT033H.grib2 2026-05-05 14:48 423K
20260505T12Z_MSC_RDPS_WindV_IsbL-0150_RLatLon0.09_PT033H.grib2 2026-05-05 14:48 391K
20260505T12Z_MSC_RDPS_WindV_IsbL-0175_RLatLon0.09_PT033H.grib2 2026-05-05 14:48 414K
20260505T12Z_MSC_RDPS_WindV_IsbL-0200_RLatLon0.09_PT033H.grib2 2026-05-05 14:48 334K
20260505T12Z_MSC_RDPS_WindV_IsbL-0225_RLatLon0.09_PT033H.grib2 2026-05-05 14:48 335K
20260505T12Z_MSC_RDPS_WindV_IsbL-0250_RLatLon0.09_PT033H.grib2 2026-05-05 14:48 334K
20260505T12Z_MSC_RDPS_WindV_IsbL-0275_RLatLon0.09_PT033H.grib2 2026-05-05 14:48 374K
20260505T12Z_MSC_RDPS_WindV_IsbL-0300_RLatLon0.09_PT033H.grib2 2026-05-05 14:48 373K
20260505T12Z_MSC_RDPS_WindV_IsbL-0350_RLatLon0.09_PT033H.grib2 2026-05-05 14:48 360K
20260505T12Z_MSC_RDPS_WindV_IsbL-0400_RLatLon0.09_PT033H.grib2 2026-05-05 14:48 362K
20260505T12Z_MSC_RDPS_WindV_IsbL-0450_RLatLon0.09_PT033H.grib2 2026-05-05 14:48 361K
20260505T12Z_MSC_RDPS_WindV_IsbL-0500_RLatLon0.09_PT033H.grib2 2026-05-05 14:48 463K
20260505T12Z_MSC_RDPS_WindV_IsbL-0550_RLatLon0.09_PT033H.grib2 2026-05-05 14:48 464K
20260505T12Z_MSC_RDPS_WindV_IsbL-0600_RLatLon0.09_PT033H.grib2 2026-05-05 14:48 474K
20260505T12Z_MSC_RDPS_WindV_IsbL-0650_RLatLon0.09_PT033H.grib2 2026-05-05 14:48 493K
20260505T12Z_MSC_RDPS_WindV_IsbL-0700_RLatLon0.09_PT033H.grib2 2026-05-05 14:48 515K
20260505T12Z_MSC_RDPS_WindV_IsbL-0750_RLatLon0.09_PT033H.grib2 2026-05-05 14:48 541K
20260505T12Z_MSC_RDPS_WindV_IsbL-0800_RLatLon0.09_PT033H.grib2 2026-05-05 14:48 568K
20260505T12Z_MSC_RDPS_WindV_IsbL-0850_RLatLon0.09_PT033H.grib2 2026-05-05 14:48 618K
20260505T12Z_MSC_RDPS_WindV_IsbL-0875_RLatLon0.09_PT033H.grib2 2026-05-05 14:48 637K
20260505T12Z_MSC_RDPS_WindV_IsbL-0900_RLatLon0.09_PT033H.grib2 2026-05-05 14:48 649K
20260505T12Z_MSC_RDPS_WindV_IsbL-0925_RLatLon0.09_PT033H.grib2 2026-05-05 14:48 658K
20260505T12Z_MSC_RDPS_WindV_IsbL-0950_RLatLon0.09_PT033H.grib2 2026-05-05 14:48 657K
20260505T12Z_MSC_RDPS_WindV_IsbL-0970_RLatLon0.09_PT033H.grib2 2026-05-05 14:48 654K
20260505T12Z_MSC_RDPS_WindV_IsbL-0985_RLatLon0.09_PT033H.grib2 2026-05-05 14:48 650K
20260505T12Z_MSC_RDPS_WindV_IsbL-1000_RLatLon0.09_PT033H.grib2 2026-05-05 14:48 783K
20260505T12Z_MSC_RDPS_WindV_IsbL-1015_RLatLon0.09_PT033H.grib2 2026-05-05 14:48 775K